This is the latest recevied weather packets stored in our database for station/object OE3TEC-15. If no packets are shown the sender has not sent any weather packets the latest 10 day(s).
| Time | Temp. | Humidity | Pressure | Rain* | Wind** | Luminosity | Snow |
|---|---|---|---|---|---|---|---|
| 1777804656 | 22.78° C | 36% | 1018.7 hPa | 0 mm | - | 676 W/m² | - |
| 1777804056 | 22.78° C | 36% | 1019.1 hPa | 0 mm | - | 676 W/m² | - |
| 1777803450 | 22.22° C | 36% | 1019.1 hPa | 0 mm | - | 671 W/m² | - |
| 1777802844 | 22.78° C | 38% | 1019 hPa | 0 mm | - | 671 W/m² | - |
| 1777802237 | 22.22° C | 37% | 1019.2 hPa | 0 mm | - | 667 W/m² | - |
| 1777801631 | 21.67° C | 38% | 1019 hPa | 0 mm | - | 656 W/m² | - |
| 1777801023 | 21.67° C | 40% | 1019.3 hPa | 0 mm | - | 652 W/m² | - |
| 1777800415 | 21.11° C | 40% | 1019.3 hPa | 0 mm | - | 645 W/m² | - |
| 1777799808 | 20.56° C | 40% | 1019.2 hPa | 0 mm | - | 631 W/m² | - |
| 1777799201 | 21.11° C | 40% | 1019.5 hPa | 0 mm | - | 619 W/m² | - |
| 1777798594 | 20.56° C | 41% | 1019.7 hPa | 0 mm | - | 604 W/m² | - |
| 1777797987 | 20.56° C | 42% | 1019.5 hPa | 0 mm | - | 589 W/m² | - |
| 1777797378 | 20° C | 42% | 1019.7 hPa | 0 mm | - | 571 W/m² | - |
| 1777796771 | 19.44° C | 44% | 1019.5 hPa | 0 mm | - | 557 W/m² | - |
| 1777796165 | 18.89° C | 45% | 1019.7 hPa | 0 mm | - | 537 W/m² | - |
| 1777795558 | 18.89° C | 45% | 1019.7 hPa | 0 mm | - | 515 W/m² | - |
| 1777794951 | 18.33° C | 45% | 1019.9 hPa | 0 mm | - | 494 W/m² | - |
| 1777794343 | 17.78° C | 47% | 1019.9 hPa | 0 mm | - | 471 W/m² | - |
| 1777793735 | 17.22° C | 47% | 1019.9 hPa | 0 mm | - | 447 W/m² | - |
| 1777793128 | 17.22° C | 50% | 1019.7 hPa | 0 mm | - | 419 W/m² | - |
| 1777792520 | 16.11° C | 50% | 1019.9 hPa | 0 mm | - | 402 W/m² | - |
| 1777791914 | 16.11° C | 52% | 1019.8 hPa | 0 mm | - | 370 W/m² | - |
| 1777791306 | 15.56° C | 51% | 1019.7 hPa | 0 mm | - | 343 W/m² | - |
| 1777790698 | 15° C | 52% | 1019.8 hPa | 0 mm | - | 319 W/m² | - |
| 1777790093 | 15° C | 53% | 1019.8 hPa | 0 mm | - | 290 W/m² | - |
* Rain latest hour (hover to see other rain measurements)
** Current wind speed in m/s (hover to see current wind gust speed)